星链-33694 (STARLINK-33694)

导读

STARLINK-33694是美国SpaceX星链星座的成员卫星,于2025年3月31日发射升空。星链项目旨在搭建全球卫星互联网,为全球偏远地区、灾害场景等提供高速低延迟网络服务,该卫星入轨后将参与星座组网,补充完善星链系统的通信覆盖能力,助力SpaceX实现全球互联的网络建设目标。

基本信息
目录编号:
63407
目录名称:
STARLINK-33694
国际标识:
2025-065J
轨道中心:
EARTH
卫星名称:
星链-33694
卫星全名:
星链-33694 (STARLINK-33694)
卫星状态:
在轨 (已飞行522 天)
发射日期:
2025-03-31 UTC
国别 :
美国 (US)
星等 :
--
轨道信息
数据来源 国际轨道数据 AOE轨道数据
星历时间 2026-09-04T12:53:25+0800
7小时前
查看轨道信息
2026-08-28T23:00:00+0800
6天前
查看轨道信息
半长轴 6861.159km 6861.233km
偏心率 0.0001212 0.0001185
轨道倾角 43.000° 43.002°
近地点辐角 228.092° 233.731°
升交点赤经 178.720° 215.881°
平近点角 131.983° 265.431°
近地点 482.19km 482.282km
远地点 483.854km 483.91km
周期 94.266分钟 94.268分钟
每日圈数 15.275891 15.275645
详细信息
固有亮度:
5
最大亮度:
2.5
卫星平台:
Starlink V1.0
覆盖范围:
全球
运营商:
太空探索技术公司
运营商所在国:
美国
制造商(研发单位):
太空探索技术公司
制造商所在国:
美国
使用方式:
暂无
卫星简介
Starlink 计划是 SpaceX 推出的全球卫星互联网项目,通过发射低轨道卫星,为全球尤其是偏远地区提供高速、低延迟的互联网服务。自 2019 年起,Starlink 已部署数千颗卫星,旨在缩小全球数字鸿沟,推动互联网普及。该项目还为军事、航空等行业提供通信支持,带来广泛经济效益。
2D轨道图
3D轨道图
轨道高度分析图
轨道倾角分析图
轨道综合分析图
查看轨道综合分析图
交会数据列表
事件ID 空间交会对象 最接近时刻(TCA) 交会距离 交会风险概率(CRP) 交会风险指数(CRI) 操作
CDM_260827-190205-945706-340721
2026-08-27T
19:02:14+0000
0.285 km
中距离
3.815062E-4 高风险 0.87
CDM_260906-080106-340706-630421
OBJECT M (66304)
2026-09-06T
08:01:33+0000
2.808 km
极远距离
1.149856E-6 低风险 0.36